Location: Newark
(25.6108°S, 54.5803°W)
Time: 21:43:24
(UTC+00:00)

Courier 1B - Pass Details

Date: 29 October 2020
Orbit: 962 x 1209 km, 28.3° (Epoch: 24 November)

Event Time Altitude Azimuth Distance (km) Brightness Sun altitude
Rises 09:43:19 0° 274° (W) 4,065 10.1 10.6°
Reaches altitude 10° 09:47:54 10° 298° (WNW) 3,054 9.6 11.6°
Maximum altitude 09:51:25 14° 326° (NW) 2,732 9.5 12.4°
Drops below altitude 10° 09:54:51 10° 354° (N) 2,964 9.9 13.1°
Sets 09:59:12 0° 19° (NNE) 3,856 10.8 14.1°
